FW6151 Weather Reports


Display with metric or nautical units.
time (UTC)temp
F
wind
direction
speed
MPH
gust
MPH
rain 1hr
in
rain 24hr
in
rain mn
in
humidity
%
barometer
mb
20260905152522 74 267 0.0 2.0 0.00 0.00 0.00 70 1025.6
20260905152022 73 269 0.0 2.0 0.00 0.00 0.00 71 1025.7
20260905151523 73 269 0.0 2.0 0.00 0.00 0.00 71 1025.7
20260905151024 73 288 0.0 4.0 0.00 0.00 0.00 72 1025.7
20260905150521 73 312 0.0 4.0 0.00 0.00 0.00 72 1025.8
20260905150021 73 132 0.0 1.0 0.00 0.00 0.00 73 1025.8
20260905145520 72 132 0.0 2.0 0.00 0.00 0.00 73 1025.8
20260905145023 72 132 0.0 3.0 0.00 0.00 0.00 74 1025.8
20260905144535 72 134 0.0 2.0 0.00 0.00 0.00 74 1025.8
20260905144020 72 126 0.0 0.0 0.00 0.00 0.00 74 1025.8
20260905143520 71 126 0.0 0.0 0.00 0.00 0.00 74 1025.9
20260905143020 71 126 0.0 2.0 0.00 0.00 0.00 75 1025.8
20260905142519 71 126 0.0 2.0 0.00 0.00 0.00 76 1025.9
20260905142024 71 128 0.0 3.0 0.00 0.00 0.00 76 1025.9
20260905141524 70 128 0.0 3.0 0.00 0.00 0.00 77 1025.9
20260905141021 70 128 0.0 2.0 0.00 0.00 0.00 78 1026.0
20260905140519 70 128 0.0 2.0 0.00 0.00 0.00 78 1026.0
20260905140026 70 128 0.0 2.0 0.00 0.00 0.00 78 1026.0
20260905135519 69 128 0.0 1.0 0.00 0.00 0.00 78 1026.0
20260905135020 69 128 0.0 2.0 0.00 0.00 0.00 79 1026.0
20260905134520 69 128 0.0 2.0 0.00 0.00 0.00 79 1026.0
20260905134019 69 128 0.0 2.0 0.00 0.00 0.00 79 1026.1
20260905133522 69 128 0.0 3.0 0.00 0.00 0.00 79 1026.1
20260905133018 69 128 0.0 3.0 0.00 0.00 0.00 79 1026.2
20260905132518 69 63 0.0 3.0 0.00 0.00 0.00 79 1026.2
20260905132019 69 63 1.0 6.0 0.00 0.00 0.00 78 1026.2
20260905131518 69 307 2.0 6.0 0.00 0.00 0.00 78 1026.2
20260905131019 69 298 2.0 5.0 0.00 0.00 0.00 78 1026.2
20260905130520 69 13 1.0 4.0 0.00 0.00 0.00 78 1026.3
20260905130019 69 360 1.0 4.0 0.00 0.00 0.00 78 1026.2
20260905125517 70 314 1.0 4.0 0.00 0.00 0.00 78 1026.2
20260905125017 70 31 1.0 5.0 0.00 0.00 0.00 78 1026.3
20260905124528 70 313 2.0 8.0 0.00 0.00 0.00 78 1026.2
20260905124018 70 331 1.0 7.0 0.00 0.00 0.00 78 1026.2
20260905123516 70 207 3.0 7.0 0.00 0.00 0.00 78 1026.1
20260905123016 70 286 1.0 8.0 0.00 0.00 0.00 78 1026.1
20260905122518 70 33 3.0 9.0 0.00 0.00 0.00 78 1026.1
20260905122014 70 355 2.0 9.0 0.00 0.00 0.00 79 1026.0
20260905121517 70 249 2.0 6.0 0.00 0.00 0.00 79 1026.0
20260905121014 70 196 2.0 8.0 0.00 0.00 0.00 79 1026.1
20260905120514 70 196 3.0 8.0 0.00 0.00 0.00 79 1026.1
20260905120013 70 227 3.0 8.0 0.00 0.00 0.00 79 1026.0
20260905115516 70 78 1.0 8.0 0.00 0.00 0.00 78 1026.0
20260905115013 70 329 3.0 9.0 0.00 0.00 0.00 78 1026.0
20260905114512 70 188 2.0 11.0 0.00 0.00 0.00 78 1025.9
20260905114012 70 331 3.0 10.0 0.00 0.00 0.00 78 1025.9
20260905113513 70 294 3.0 10.0 0.00 0.00 0.00 78 1025.8
20260905113012 71 258 1.0 10.0 0.00 0.00 0.00 77 1025.8
20260905112510 72 315 3.0 8.0 0.00 0.00 0.00 75 1025.8
20260905112010 72 341 2.0 11.0 0.00 0.00 0.00 74 1025.7
20260905111509 73 360 3.0 11.0 0.00 0.00 0.00 72 1025.7
20260905111009 74 232 2.0 7.0 0.00 0.00 0.00 69 1025.5
20260905110511 75 321 2.0 6.0 0.00 0.00 0.00 68 1025.4
20260905110107 75 268 2.0 6.0 0.00 0.00 0.00 66 1025.3
20260905105507 75 101 0.0 6.0 0.00 0.00 0.00 64 1025.2
20260905105005 76 346 2.0 6.0 0.00 0.00 0.00 64 1025.2
20260905104505 76 119 1.0 5.0 0.00 0.00 0.00 64 1025.0
20260905104005 76 299 2.0 4.0 0.00 0.00 0.00 65 1025.1
20260905103505 76 183 1.0 7.0 0.00 0.00 0.00 66 1025.1
20260905103004 75 246 0.0 4.0 0.00 0.00 0.00 66 1025.0
20260905102502 75 107 1.0 8.0 0.00 0.00 0.00 66 1025.0
20260905102002 75 80 0.0 5.0 0.00 0.00 0.00 67 1025.0
20260905101502 75 103 1.0 7.0 0.00 0.00 0.00 68 1025.0
20260905101100 75 63 2.0 7.0 0.00 0.00 0.00 68 1025.0
20260905100559 74 79 0.0 3.0 0.00 0.00 0.00 69 1024.9
20260905100105 74 195 0.0 6.0 0.00 0.00 0.00 70 1024.9
20260905095558 74 115 1.0 6.0 0.00 0.00 0.00 70 1025.0
20260905095057 74 303 0.0 3.0 0.00 0.00 0.00 70 1024.9
20260905094607 74 302 1.0 3.0 0.00 0.00 0.00 70 1024.9
20260905094057 74 301 1.0 3.0 0.00 0.00 0.00 70 1024.9
20260905093556 74 281 1.0 3.0 0.00 0.00 0.00 70 1024.9
20260905093056 74 245 0.0 4.0 0.00 0.00 0.00 70 1024.9
20260905092556 74 246 1.0 4.0 0.00 0.00 0.00 70 1024.9
20260905092055 74 335 1.0 3.0 0.00 0.00 0.00 70 1024.8
20260905091606 74 190 0.0 3.0 0.00 0.00 0.00 70 1024.8
20260905091054 74 190 0.0 5.0 0.00 0.00 0.00 70 1024.9
20260905090553 74 134 1.0 5.0 0.00 0.00 0.00 70 1024.8
20260905090052 73 355 0.0 4.0 0.00 0.00 0.00 71 1024.6
20260905085552 73 71 0.0 2.0 0.00 0.00 0.00 72 1024.6
20260905085054 73 71 0.0 2.0 0.00 0.00 0.00 73 1024.6
20260905084549 72 59 0.0 3.0 0.00 0.00 0.00 73 1024.6
20260905084050 72 46 0.0 3.0 0.00 0.00 0.00 73 1024.6
20260905083550 72 37 1.0 3.0 0.00 0.00 0.00 73 1024.6
20260905083047 72 65 0.0 3.0 0.00 0.00 0.00 74 1024.5
20260905082545 71 121 0.0 3.0 0.00 0.00 0.00 74 1024.5
20260905082049 71 121 0.0 3.0 0.00 0.00 0.00 74 1024.5
20260905081553 71 132 0.0 2.0 0.00 0.00 0.00 75 1024.3
20260905081044 71 132 0.0 2.0 0.00 0.00 0.00 74 1024.3
20260905080544 71 132 0.0 3.0 0.00 0.00 0.00 74 1024.1
20260905080053 71 130 1.0 3.0 0.00 0.00 0.00 74 1024.2
20260905075541 71 30 0.0 3.0 0.00 0.00 0.00 74 1024.3
20260905075043 71 30 0.0 3.0 0.00 0.00 0.00 74 1024.2
20260905074540 71 30 0.0 2.0 0.00 0.00 0.00 74 1024.1
20260905074040 71 30 0.0 3.0 0.00 0.00 0.00 75 1024.1
20260905073541 70 30 0.0 3.0 0.00 0.00 0.00 75 1024.1
20260905073045 70 67 0.0 0.0 0.00 0.00 0.00 75 1024.1
20260905072539 70 64 0.0 2.0 0.00 0.00 0.00 75 1024.0
20260905072040 70 64 0.0 3.0 0.00 0.00 0.00 75 1023.9
20260905071536 70 325 0.0 2.0 0.00 0.00 0.00 76 1023.8
20260905071038 70 319 0.0 1.0 0.00 0.00 0.00 76 1023.8
20260905070534 70 319 0.0 2.0 0.00 0.00 0.00 76 1023.7
20260905070044 70 318 0.0 2.0 0.00 0.00 0.00 76 1023.7
20260905065532 69 319 0.0 0.0 0.00 0.00 0.00 76 1023.7
20260905065034 69 319 0.0 0.0 0.00 0.00 0.00 76 1023.7
20260905064531 69 319 0.0 1.0 0.00 0.00 0.00 76 1023.6
20260905064033 69 319 0.0 4.0 0.00 0.00 0.00 76 1023.6
20260905063530 69 318 1.0 4.0 0.00 0.00 0.00 76 1023.5
20260905063032 69 97 0.0 0.0 0.00 0.00 0.00 76 1023.5
20260905062531 69 106 0.0 0.0 0.00 0.00 0.00 76 1023.4
20260905062027 69 101 0.0 0.0 0.00 0.00 0.00 77 1023.3
20260905061541 69 101 0.0 0.0 0.00 0.00 0.00 76 1023.3
20260905061026 68 101 0.0 6.0 0.00 0.00 0.00 77 1023.2
20260905060524 68 323 0.0 0.0 0.00 0.00 0.00 77 1023.2
20260905060023 68 323 0.0 0.0 0.00 0.00 0.00 77 1023.1
20260905055521 68 323 0.0 0.0 0.00 0.00 0.00 76 1023.1
20260905055022 68 323 0.0 0.0 0.00 0.00 0.00 77 1023.0
20260905054521 68 323 0.0 0.0 0.00 0.00 0.00 77 1023.0
20260905054020 68 323 0.0 0.0 0.00 0.00 0.00 77 1022.9
20260905053522 68 323 0.0 0.0 0.00 0.00 0.00 77 1022.9
20260905053022 68 323 0.0 0.0 0.00 0.00 0.00 77 1022.9
20260905052518 67 323 0.0 0.0 0.00 0.00 0.00 77 1022.8
20260905052019 67 323 0.0 0.0 0.00 0.00 0.00 77 1022.7
20260905051521 67 323 0.0 0.0 0.00 0.00 0.00 77 1022.7
20260905051016 67 300 0.0 2.0 0.00 0.00 0.00 76 1022.7
20260905050517 67 300 0.0 2.0 0.00 0.00 0.00 76 1022.6
20260905050016 67 298 0.0 2.0 0.00 0.00 0.00 76 1022.6
20260905045515 67 298 0.0 3.0 0.00 0.00 0.00 75 1022.5
20260905045014 68 298 0.0 4.0 0.00 0.00 0.00 75 1022.5
20260905044517 68 204 1.0 4.0 0.00 0.00 0.00 74 1022.4
20260905044014 68 255 0.0 4.0 0.00 0.00 0.00 74 1022.2
20260905043513 68 296 2.0 4.0 0.00 0.00 0.00 73 1022.0
20260905043013 68 175 0.0 2.0 0.00 0.00 0.00 73 1022.0
20260905042516 69 175 0.0 1.0 0.00 0.00 0.00 73 1022.0
20260905042012 69 175 0.0 2.0 0.00 0.00 0.00 73 1021.9
20260905041512 69 175 0.0 2.0 0.00 0.00 0.00 73 1021.9
20260905041013 69 175 0.0 0.0 0.00 0.00 0.00 73 1022.1
20260905040511 69 175 0.0 0.0 0.00 0.00 0.00 72 1022.1
20260905040017 69 175 0.0 0.0 0.00 0.00 0.00 72 1022.2
20260905035510 69 175 0.0 0.0 0.00 0.00 0.00 71 1022.1
20260905035010 69 175 0.0 0.0 0.00 0.00 0.00 70 1022.1
20260905034512 69 175 0.0 0.0 0.00 0.00 0.00 70 1022.1
20260905034009 70 175 0.0 0.0 0.00 0.00 0.00 69 1021.9
20260905033509 70 175 0.0 0.0 0.00 0.00 0.00 69 1021.9
20260905033009 70 175 0.0 0.0 0.00 0.00 0.00 69 1021.9
20260905032513 70 175 0.0 1.0 0.00 0.00 0.00 68 1021.8
20260905032008 70 175 0.0 1.0 0.00 0.00 0.00 68 1021.9
20260905031508 70 175 0.0 1.0 0.00 0.00 0.00 68 1022.0
20260905031007 70 175 0.0 3.0 0.00 0.00 0.00 68 1021.7
20260905030510 70 175 0.0 2.0 0.00 0.00 0.00 68 1021.7
20260905030007 71 175 0.0 2.0 0.00 0.00 0.00 67 1021.8
20260905025509 71 175 0.0 2.0 0.00 0.00 0.00 67 1021.7
20260905025009 71 175 0.0 2.0 0.00 0.00 0.00 67 1021.5
20260905024507 71 175 0.0 2.0 0.00 0.00 0.00 66 1021.6
20260905024009 71 175 0.0 4.0 0.00 0.00 0.00 66 1021.5
20260905023505 71 132 2.0 4.0 0.00 0.00 0.00 66 1021.5
20260905023005 71 360 1.0 5.0 0.00 0.00 0.00 66 1021.5
20260905022504 71 170 0.0 5.0 0.00 0.00 0.00 65 1021.2
20260905022007 71 142 0.0 2.0 0.00 0.00 0.00 65 1021.5
20260905021507 71 142 0.0 2.0 0.00 0.00 0.00 65 1021.4
20260905021004 71 143 0.0 4.0 0.00 0.00 0.00 65 1021.4
20260905020506 71 175 0.0 3.0 0.00 0.00 0.00 65 1021.5
20260905020004 71 174 0.0 3.0 0.00 0.00 0.00 65 1021.5
20260905015503 71 174 0.0 2.0 0.00 0.00 0.00 65 1021.5
20260905015004 71 174 0.0 3.0 0.00 0.00 0.00 65 1021.6
20260905014503 70 174 0.0 3.0 0.00 0.00 0.00 65 1021.4
20260905014003 70 174 0.0 3.0 0.00 0.00 0.00 66 1021.3
20260905013503 70 174 0.0 3.0 0.00 0.00 0.00 66 1021.3
20260905013001 70 144 0.0 2.0 0.00 0.00 0.00 67 1021.3
20260905012604 69 123 0.0 2.0 0.00 0.00 0.00 67 1021.2
20260905012100 69 123 0.0 3.0 0.00 0.00 0.00 68 1021.0
20260905011559 69 123 0.0 3.0 0.00 0.00 0.00 69 1021.0
20260905011101 69 29 0.0 3.0 0.00 0.00 0.00 70 1021.0
20260905010559 68 68 0.0 3.0 0.00 0.00 0.00 70 1021.1
20260905010106 68 68 0.0 3.0 0.00 0.00 0.00 70 1021.1
20260905005558 68 130 0.0 4.0 0.00 0.00 0.00 71 1021.1
20260905005058 68 223 0.0 0.0 0.00 0.00 0.00 72 1021.0
20260905004610 68 223 0.0 0.0 0.00 0.00 0.00 72 1021.0
20260905004058 69 223 0.0 0.0 0.00 0.00 0.00 72 1021.0
20260905003557 69 223 0.0 0.0 0.00 0.00 0.00 73 1021.0
20260905003057 69 315 0.0 0.0 0.00 0.00 0.00 73 1020.8
20260905002557 69 315 0.0 0.0 0.00 0.00 0.00 73 1020.7
20260905002100 69 315 0.0 2.0 0.00 0.00 0.00 73 1020.8
20260905001557 69 315 0.0 4.0 0.00 0.00 0.00 73 1020.8
20260905001056 68 314 2.0 4.0 0.00 0.00 0.00 73 1020.8
20260905000554 68 126 0.0 3.0 0.00 0.00 0.00 72 1020.5
20260905000054 68 127 0.0 3.0 0.00 0.00 0.00 73 1020.4
20260904235555 68 355 0.0 0.0 0.00 0.00 0.00 75 1020.4
20260904235055 68 355 0.0 0.0 0.00 0.00 0.00 75 1020.5
20260904234556 68 355 0.0 0.0 0.00 0.00 0.00 75 1020.5
20260904234054 68 355 0.0 0.0 0.00 0.00 0.00 75 1020.3
20260904233551 69 355 0.0 0.0 0.00 0.00 0.00 75 1020.3
20260904233053 69 355 0.0 0.0 0.00 0.00 0.00 75 1020.1
20260904232550 69 355 0.0 0.0 0.00 0.00 0.00 74 1020.1
20260904232049 69 355 0.0 0.0 0.00 0.00 0.00 74 1020.1
20260904231548 69 355 0.0 0.0 0.00 0.00 0.00 74 1020.0
20260904231048 69 355 0.0 0.0 0.00 0.00 0.00 74 1020.0
20260904230547 69 355 0.0 0.0 0.00 0.00 0.00 73 1020.0
20260904230046 70 355 0.0 0.0 0.00 0.00 0.00 73 1020.0
20260904225545 70 355 0.0 0.0 0.00 0.00 0.00 73 1019.9
20260904225046 70 355 0.0 0.0 0.00 0.00 0.00 73 1019.9
20260904224545 70 355 0.0 0.0 0.00 0.00 0.00 72 1019.9
20260904224047 70 355 0.0 0.0 0.00 0.00 0.00 72 1019.7
20260904223544 71 355 0.0 0.0 0.00 0.00 0.00 71 1019.8
20260904223041 71 355 0.0 0.0 0.00 0.00 0.00 71 1019.8
20260904222540 71 355 0.0 0.0 0.00 0.00 0.00 71 1019.7
20260904222044 71 355 0.0 0.0 0.00 0.00 0.00 71 1019.7
20260904221539 71 355 0.0 0.0 0.00 0.00 0.00 70 1019.7
20260904221038 72 355 0.0 0.0 0.00 0.00 0.00 70 1019.7
20260904220537 72 355 0.0 0.0 0.00 0.00 0.00 70 1019.7
20260904220055 72 355 0.0 0.0 0.00 0.00 0.00 69 1019.6
20260904215536 72 355 0.0 0.0 0.00 0.00 0.00 69 1019.6
20260904215037 72 355 0.0 0.0 0.00 0.00 0.00 68 1019.5
20260904214539 73 355 0.0 0.0 0.00 0.00 0.00 68 1019.5
20260904214034 73 355 0.0 0.0 0.00 0.00 0.00 67 1019.4
20260904213537 73 355 0.0 0.0 0.00 0.00 0.00 67 1019.4
20260904213035 73 355 0.0 2.0 0.00 0.00 0.00 66 1019.3
20260904212534 74 355 0.0 2.0 0.00 0.00 0.00 66 1019.4
20260904212034 74 355 0.0 2.0 0.00 0.00 0.00 65 1019.2
20260904211537 74 355 0.0 2.0 0.00 0.00 0.00 65 1019.3
20260904211037 74 355 0.0 2.0 0.00 0.00 0.00 64 1019.2
20260904210533 74 355 0.0 1.0 0.00 0.00 0.00 64 1019.1
20260904210042 75 355 0.0 1.0 0.00 0.00 0.00 64 1019.1
20260904205533 75 355 0.0 3.0 0.00 0.00 0.00 63 1019.1
20260904205036 75 355 0.0 3.0 0.00 0.00 0.00 62 1019.1
20260904204534 76 355 0.0 1.0 0.00 0.00 0.00 62 1019.1
20260904204032 76 355 0.0 0.0 0.00 0.00 0.00 61 1019.0
20260904203532 76 355 0.0 0.0 0.00 0.00 0.00 61 1019.0
20260904203044 76 355 0.0 0.0 0.00 0.00 0.00 60 1019.0
20260904202532 77 355 0.0 0.0 0.00 0.00 0.00 59 1019.1
20260904202031 77 355 0.0 0.0 0.00 0.00 0.00 58 1019.0
20260904201531 78 355 0.0 0.0 0.00 0.00 0.00 58 1019.0
20260904201031 78 355 0.0 0.0 0.00 0.00 0.00 57 1019.0
20260904200534 78 355 0.0 0.0 0.00 0.00 0.00 57 1019.0
20260904200031 79 355 0.0 0.0 0.00 0.00 0.00 57 1018.9
20260904195533 79 355 0.0 0.0 0.00 0.00 0.00 56 1018.8
20260904195031 79 355 0.0 0.0 0.00 0.00 0.00 55 1018.8
20260904194531 80 355 0.0 0.0 0.00 0.00 0.00 54 1018.8
20260904194030 80 355 0.0 0.0 0.00 0.00 0.00 53 1018.9
20260904193531 81 355 0.0 0.0 0.00 0.00 0.00 53 1018.8
20260904193032 81 355 0.0 0.0 0.00 0.00 0.00 53 1018.8
20260904192530 81 355 0.0 0.0 0.00 0.00 0.00 51 1018.9
20260904192029 82 355 0.0 0.0 0.00 0.00 0.00 51 1018.8
20260904191541 82 355 0.0 0.0 0.00 0.00 0.00 50 1018.8
20260904191029 82 355 0.0 0.0 0.00 0.00 0.00 50 1018.8
20260904190531 82 355 0.0 0.0 0.00 0.00 0.00 49 1018.7
20260904190036 83 355 0.0 0.0 0.00 0.00 0.00 49 1018.7
20260904185528 83 355 0.0 0.0 0.00 0.00 0.00 48 1018.6
20260904185028 83 360 0.0 0.0 0.00 0.00 0.00 48 1018.5
20260904184531 83 360 0.0 0.0 0.00 0.00 0.00 48 1018.5
20260904184029 84 360 0.0 1.0 0.00 0.00 0.00 47 1018.5
20260904183529 84 360 0.0 4.0 0.00 0.00 0.00 47 1018.4
20260904183028 84 360 0.0 4.0 0.00 0.00 0.00 47 1018.4
20260904182528 84 240 0.0 3.0 0.00 0.00 0.00 47 1018.3
20260904182028 84 271 0.0 3.0 0.00 0.00 0.00 47 1018.3
20260904181528 84 269 0.0 4.0 0.00 0.00 0.00 46 1018.3
20260904181027 85 178 0.0 4.0 0.00 0.00 0.00 46 1018.1
20260904180528 85 62 0.0 4.0 0.00 0.00 0.00 46 1018.1
20260904180027 85 285 0.0 4.0 0.00 0.00 0.00 46 1017.9
20260904175527 85 285 1.0 5.0 0.00 0.00 0.00 46 1017.9
20260904175027 85 169 1.0 5.0 0.00 0.00 0.00 46 1018.0
20260904174531 85 304 2.0 5.0 0.00 0.00 0.00 46 1017.9
20260904174027 86 324 1.0 5.0 0.00 0.00 0.00 45 1017.9
20260904173526 86 207 1.0 5.0 0.00 0.00 0.00 45 1017.8
20260904173037 86 250 2.0 5.0 0.00 0.00 0.00 45 1017.8
20260904172527 86 184 1.0 5.0 0.00 0.00 0.00 45 1017.8
20260904172026 86 190 2.0 5.0 0.00 0.00 0.00 44 1017.7
20260904171527 87 346 1.0 4.0 0.00 0.00 0.00 44 1017.6
20260904171026 87 313 0.0 5.0 0.00 0.00 0.00 44 1017.8
20260904170525 87 146 2.0 6.0 0.00 0.00 0.00 44 1017.7
20260904170038 87 301 2.0 6.0 0.00 0.00 0.00 43 1017.7
20260904165526 87 205 2.0 8.0 0.00 0.00 0.00 43 1017.6
20260904165025 87 225 1.0 8.0 0.00 0.00 0.00 43 1017.6
20260904164526 88 220 2.0 8.0 0.00 0.00 0.00 42 1017.6
20260904164025 88 225 1.0 8.0 0.00 0.00 0.00 42 1017.6
20260904163524 88 257 2.0 8.0 0.00 0.00 0.00 41 1017.6
20260904163024 88 322 2.0 9.0 0.00 0.00 0.00 41 1017.6
20260904162528 88 342 0.0 9.0 0.00 0.00 0.00 41 1017.7
20260904162023 88 264 1.0 9.0 0.00 0.00 0.00 41 1017.6
20260904161525 88 225 2.0 9.0 0.00 0.00 0.00 40 1017.7
20260904161023 89 273 2.0 8.0 0.00 0.00 0.00 40 1017.6
20260904160526 89 177 1.0 7.0 0.00 0.00 0.00 40 1017.7
20260904160023 89 169 2.0 7.0 0.00 0.00 0.00 40 1017.7
20260904155526 89 225 2.0 6.0 0.00 0.00 0.00 40 1017.7
20260904155022 89 328 2.0 5.0 0.00 0.00 0.00 40 1017.7
20260904154526 89 237 1.0 10.0 0.00 0.00 0.00 40 1017.7
20260904154027 89 180 3.0 10.0 0.00 0.00 0.00 40 1017.7
20260904153525 89 275 2.0 5.0 0.00 0.00 0.00 40 1017.7
20260904153022 89 238 2.0 5.0 0.00 0.00 0.00 40 1017.7